Time,TemperatureF,DewpointF,PressureIn,WindDirection,WindDirectionDegrees,WindSpeedMPH,WindSpeedGustMPH,Humidity,HourlyPrecipIn,Conditions,Clouds,dailyrainin,SoftwareType,DateUTC
2013-03-09 00:01:00,35.0,33.0,-100.00,North,-999,0.0,0.0,91,-99.99,,,-99.99,,2013-03-09 08:01:00,
2013-03-09 00:11:00,35.0,33.0,-100.00,North,-999,0.0,0.0,91,-99.99,,,-99.99,,2013-03-09 08:11:00,
2013-03-09 00:21:00,35.0,33.0,-100.00,North,-999,0.0,0.0,91,-99.99,,,-99.99,,2013-03-09 08:21:00,
2013-03-09 00:31:00,35.0,33.0,-100.00,North,-999,0.0,0.0,91,-99.99,,,-99.99,,2013-03-09 08:31:00,
2013-03-09 00:41:00,35.0,33.0,-100.00,North,-999,0.0,0.0,91,-99.99,,,-99.99,,2013-03-09 08:41:00,
2013-03-09 00:52:00,36.0,33.0,-100.00,North,-999,0.0,0.0,91,-99.99,,,-99.99,,2013-03-09 08:52:00,
2013-03-09 01:01:00,36.0,33.0,-100.00,North,-999,0.0,0.0,91,-99.99,,,-99.99,,2013-03-09 09:01:00,
2013-03-09 01:11:00,36.0,33.0,-100.00,North,-999,0.0,0.0,91,-99.99,,,-99.99,,2013-03-09 09:11:00,
2013-03-09 01:21:00,36.0,33.0,-100.00,North,-999,0.0,0.0,91,-99.99,,,-99.99,,2013-03-09 09:21:00,
2013-03-09 01:31:00,36.0,33.0,-100.00,North,-999,0.0,0.0,92,-99.99,,,-99.99,,2013-03-09 09:31:00,
2013-03-09 01:41:00,36.0,33.0,-100.00,North,-999,0.0,0.0,92,-99.99,,,-99.99,,2013-03-09 09:41:00,
2013-03-09 01:52:00,35.0,33.0,-100.00,North,-999,0.0,0.0,92,-99.99,,,-99.99,,2013-03-09 09:52:00,
2013-03-09 02:01:00,35.0,33.0,-100.00,North,-999,0.0,0.0,92,-99.99,,,-99.99,,2013-03-09 10:01:00,
2013-03-09 02:11:00,35.0,33.0,-100.00,North,-999,0.0,0.0,92,-99.99,,,-99.99,,2013-03-09 10:11:00,
2013-03-09 02:21:00,34.0,32.0,-100.00,North,-999,0.0,0.0,92,-99.99,,,-99.99,,2013-03-09 10:21:00,
2013-03-09 02:31:00,34.0,32.0,-100.00,North,-999,0.0,0.0,92,-99.99,,,-99.99,,2013-03-09 10:31:00,
2013-03-09 02:41:00,34.0,32.0,-100.00,North,-999,0.0,0.0,92,-99.99,,,-99.99,,2013-03-09 10:41:00,
2013-03-09 02:52:00,33.0,31.0,-100.00,North,-999,0.0,0.0,92,-99.99,,,-99.99,,2013-03-09 10:52:00,
2013-03-09 03:01:00,33.0,31.0,-100.00,North,-999,0.0,0.0,92,-99.99,,,-99.99,,2013-03-09 11:01:00,
2013-03-09 03:11:00,33.0,31.0,-100.00,North,-999,0.0,0.0,92,-99.99,,,-99.99,,2013-03-09 11:11:00,
2013-03-09 03:21:00,32.0,30.0,-100.00,North,-999,0.0,0.0,92,-99.99,,,-99.99,,2013-03-09 11:21:00,
2013-03-09 03:32:00,32.0,30.0,-100.00,North,-999,0.0,0.0,92,-99.99,,,-99.99,,2013-03-09 11:32:00,
2013-03-09 03:41:00,32.0,30.0,-100.00,North,-999,0.0,0.0,92,-99.99,,,-99.99,,2013-03-09 11:41:00,
2013-03-09 03:52:00,32.0,29.0,-100.00,North,-999,0.0,0.0,92,-99.99,,,-99.99,,2013-03-09 11:52:00,
2013-03-09 04:01:00,31.0,29.0,-100.00,North,-999,0.0,0.0,92,-99.99,,,-99.99,,2013-03-09 12:01:00,
2013-03-09 04:11:00,31.0,29.0,-100.00,North,-999,0.0,0.0,92,-99.99,,,-99.99,,2013-03-09 12:11:00,
2013-03-09 04:21:00,31.0,29.0,-100.00,North,-999,0.0,0.0,93,-99.99,,,-99.99,,2013-03-09 12:21:00,
2013-03-09 04:32:00,31.0,29.0,-100.00,North,-999,0.0,0.0,93,-99.99,,,-99.99,,2013-03-09 12:32:00,
2013-03-09 04:42:00,31.0,29.0,-100.00,North,-999,0.0,0.0,93,-99.99,,,-99.99,,2013-03-09 12:42:00,
2013-03-09 04:52:00,31.0,29.0,-100.00,North,-999,0.0,0.0,93,-99.99,,,-99.99,,2013-03-09 12:52:00,
2013-03-09 05:02:00,31.0,29.0,-100.00,North,-999,0.0,0.0,93,-99.99,,,-99.99,,2013-03-09 13:02:00,
2013-03-09 05:11:00,31.0,29.0,-100.00,North,-999,0.0,0.0,93,-99.99,,,-99.99,,2013-03-09 13:11:00,
2013-03-09 05:21:00,31.0,29.0,-100.00,North,-999,0.0,0.0,93,-99.99,,,-99.99,,2013-03-09 13:21:00,
2013-03-09 05:31:00,30.0,29.0,-100.00,North,-999,0.0,0.0,93,-99.99,,,-99.99,,2013-03-09 13:31:00,
2013-03-09 05:42:00,30.0,29.0,-100.00,North,-999,0.0,0.0,93,-99.99,,,-99.99,,2013-03-09 13:42:00,
2013-03-09 05:52:00,30.0,28.0,-100.00,North,-999,0.0,0.0,93,-99.99,,,-99.99,,2013-03-09 13:52:00,
2013-03-09 06:01:00,30.0,28.0,-100.00,North,-999,0.0,0.0,93,-99.99,,,-99.99,,2013-03-09 14:01:00,
2013-03-09 06:11:00,30.0,28.0,-100.00,North,-999,0.0,0.0,93,-99.99,,,-99.99,,2013-03-09 14:11:00,
2013-03-09 06:21:00,30.0,28.0,-100.00,North,-999,0.0,0.0,93,-99.99,,,-99.99,,2013-03-09 14:21:00,
2013-03-09 06:31:00,30.0,28.0,-100.00,SW,225,1.0,2.0,93,-99.99,,,-99.99,,2013-03-09 14:31:00,
2013-03-09 06:41:00,30.0,28.0,-100.00,SW,225,1.0,2.0,93,-99.99,,,-99.99,,2013-03-09 14:41:00,
2013-03-09 06:52:00,30.0,28.0,-100.00,North,-999,0.0,0.0,93,-99.99,,,-99.99,,2013-03-09 14:52:00,
2013-03-09 07:01:00,30.0,28.0,-100.00,North,-999,0.0,0.0,93,-99.99,,,-99.99,,2013-03-09 15:01:00,
2013-03-09 07:11:00,30.0,28.0,-100.00,North,-999,0.0,0.0,93,-99.99,,,-99.99,,2013-03-09 15:11:00,
2013-03-09 07:22:00,30.0,28.0,-100.00,North,-999,0.0,0.0,93,-99.99,,,-99.99,,2013-03-09 15:22:00,
2013-03-09 07:31:00,30.0,28.0,-100.00,North,-999,0.0,0.0,93,-99.99,,,-99.99,,2013-03-09 15:31:00,
2013-03-09 07:42:00,30.0,28.0,-100.00,North,-999,0.0,0.0,93,-99.99,,,-99.99,,2013-03-09 15:42:00,
2013-03-09 07:52:00,30.0,28.0,-100.00,SW,225,1.0,1.0,93,-99.99,,,-99.99,,2013-03-09 15:52:00,
2013-03-09 08:01:00,31.0,29.0,-100.00,SW,225,1.0,1.0,93,-99.99,,,-99.99,,2013-03-09 16:01:00,
2013-03-09 08:11:00,31.0,29.0,-100.00,SW,225,1.0,1.0,93,-99.99,,,-99.99,,2013-03-09 16:11:00,
2013-03-09 08:21:00,31.0,30.0,-100.00,North,-999,0.0,0.0,93,-99.99,,,-99.99,,2013-03-09 16:21:00,
2013-03-09 08:31:00,32.0,30.0,-100.00,North,-999,0.0,0.0,93,-99.99,,,-99.99,,2013-03-09 16:31:00,
2013-03-09 08:41:00,32.0,30.0,-100.00,North,-999,0.0,0.0,93,-99.99,,,-99.99,,2013-03-09 16:41:00,
2013-03-09 08:52:00,33.0,31.0,-100.00,North,-999,0.0,0.0,93,-99.99,,,-99.99,,2013-03-09 16:52:00,
2013-03-09 09:01:00,34.0,32.0,-100.00,North,-999,0.0,0.0,93,-99.99,,,-99.99,,2013-03-09 17:01:00,
2013-03-09 09:11:00,34.0,32.0,-100.00,North,-999,0.0,0.0,93,-99.99,,,-99.99,,2013-03-09 17:11:00,
2013-03-09 09:22:00,35.0,33.0,-100.00,North,-999,0.0,0.0,93,-99.99,,,-99.99,,2013-03-09 17:22:00,
2013-03-09 09:32:00,36.0,34.0,-100.00,SE,135,1.0,1.0,93,-99.99,,,-99.99,,2013-03-09 17:32:00,
2013-03-09 09:42:00,36.0,34.0,-100.00,SE,135,1.0,1.0,93,-99.99,,,-99.99,,2013-03-09 17:42:00,
2013-03-09 09:52:00,37.0,35.0,-100.00,SW,225,0.0,1.0,93,-99.99,,,-99.99,,2013-03-09 17:52:00,
2013-03-09 10:01:00,38.0,36.0,-100.00,South,180,0.0,1.0,93,-99.99,,,-99.99,,2013-03-09 18:01:00,
2013-03-09 10:11:00,38.0,36.0,-100.00,South,180,0.0,1.0,93,-99.99,,,-99.99,,2013-03-09 18:11:00,
2013-03-09 10:21:00,39.0,38.0,-100.00,SW,225,3.0,5.0,93,-99.99,,,-99.99,,2013-03-09 18:21:00,
2013-03-09 10:31:00,41.0,39.0,-100.00,West,270,3.0,4.0,93,-99.99,,,-99.99,,2013-03-09 18:31:00,
2013-03-09 10:42:00,41.0,39.0,-100.00,West,270,3.0,4.0,93,-99.99,,,-99.99,,2013-03-09 18:42:00,
2013-03-09 10:52:00,43.0,41.0,-100.00,SW,225,1.0,3.0,93,-99.99,,,-99.99,,2013-03-09 18:52:00,
2013-03-09 11:01:00,43.0,41.0,-100.00,South,180,0.0,1.0,92,-99.99,,,-99.99,,2013-03-09 19:01:00,
2013-03-09 11:11:00,43.0,41.0,-100.00,South,180,0.0,1.0,92,-99.99,,,-99.99,,2013-03-09 19:11:00,
2013-03-09 11:21:00,43.0,41.0,-100.00,SW,225,3.0,3.0,91,-99.99,,,-99.99,,2013-03-09 19:21:00,
2013-03-09 11:31:00,44.0,41.0,-100.00,SW,225,1.0,1.0,89,-99.99,,,-99.99,,2013-03-09 19:31:00,
2013-03-09 11:42:00,44.0,41.0,-100.00,SW,225,1.0,1.0,89,-99.99,,,-99.99,,2013-03-09 19:42:00,
2013-03-09 11:52:00,45.0,41.0,-100.00,SW,225,0.0,1.0,83,-99.99,,,-99.99,,2013-03-09 19:52:00,
2013-03-09 12:01:00,47.0,41.0,-100.00,NW,315,1.0,2.0,78,-99.99,,,-99.99,,2013-03-09 20:01:00,
2013-03-09 12:11:00,47.0,41.0,-100.00,NW,315,1.0,2.0,78,-99.99,,,-99.99,,2013-03-09 20:11:00,
2013-03-09 12:21:00,48.0,39.0,-100.00,West,270,0.0,1.0,70,-99.99,,,-99.99,,2013-03-09 20:21:00,
2013-03-09 12:31:00,49.0,39.0,-100.00,South,180,1.0,3.0,69,-99.99,,,-99.99,,2013-03-09 20:31:00,
2013-03-09 12:42:00,49.0,39.0,-100.00,South,180,1.0,3.0,69,-99.99,,,-99.99,,2013-03-09 20:42:00,
2013-03-09 12:52:00,50.0,36.0,-100.00,West,270,1.0,2.0,60,-99.99,,,-99.99,,2013-03-09 20:52:00,
2013-03-09 13:01:00,50.0,35.0,-100.00,West,270,0.0,1.0,56,-99.99,,,-99.99,,2013-03-09 21:01:00,
2013-03-09 13:11:00,50.0,35.0,-100.00,West,270,0.0,1.0,56,-99.99,,,-99.99,,2013-03-09 21:11:00,
2013-03-09 13:21:00,51.0,35.0,-100.00,West,270,3.0,4.0,55,-99.99,,,-99.99,,2013-03-09 21:21:00,
2013-03-09 13:31:00,53.0,30.0,-100.00,SW,225,1.0,1.0,42,-99.99,,,-99.99,,2013-03-09 21:31:00,
2013-03-09 13:52:00,52.0,31.0,-100.00,North,-999,0.0,0.0,45,-99.99,,,-99.99,,2013-03-09 21:52:00,
2013-03-09 14:01:00,52.0,30.0,-100.00,SE,135,0.0,1.0,42,-99.99,,,-99.99,,2013-03-09 22:01:00,
2013-03-09 14:21:00,54.0,29.0,-100.00,West,270,1.0,1.0,39,-99.99,,,-99.99,,2013-03-09 22:21:00,
2013-03-09 14:32:00,53.0,33.0,-100.00,North,-999,0.0,0.0,47,-99.99,,,-99.99,,2013-03-09 22:32:00,
2013-03-09 14:41:00,53.0,33.0,-100.00,North,-999,0.0,0.0,47,-99.99,,,-99.99,,2013-03-09 22:41:00,
2013-03-09 14:52:00,54.0,30.0,-100.00,West,270,0.0,1.0,41,-99.99,,,-99.99,,2013-03-09 22:52:00,
2013-03-09 15:01:00,55.0,30.0,-100.00,SW,225,3.0,4.0,38,-99.99,,,-99.99,,2013-03-09 23:01:00,
2013-03-09 15:21:00,55.0,30.0,-100.00,West,270,1.0,2.0,39,-99.99,,,-99.99,,2013-03-09 23:21:00,
2013-03-09 15:32:00,54.0,31.0,-100.00,West,270,1.0,2.0,40,-99.99,,,-99.99,,2013-03-09 23:32:00,
2013-03-09 15:52:00,55.0,28.0,-100.00,West,270,4.0,6.0,35,-99.99,,,-99.99,,2013-03-09 23:52:00,
2013-03-09 16:01:00,55.0,30.0,-100.00,North,0,1.0,2.0,38,-99.99,,,-99.99,,2013-03-10 00:01:00,
2013-03-09 16:22:00,54.0,30.0,-100.00,West,270,4.0,6.0,39,-99.99,,,-99.99,,2013-03-10 00:22:00,
2013-03-09 16:31:00,53.0,30.0,-100.00,West,270,3.0,6.0,41,-99.99,,,-99.99,,2013-03-10 00:31:00,
2013-03-09 16:52:00,53.0,30.0,-100.00,SW,225,3.0,5.0,41,-99.99,,,-99.99,,2013-03-10 00:52:00,
2013-03-09 17:01:00,53.0,30.0,-100.00,SW,225,4.0,6.0,41,-99.99,,,-99.99,,2013-03-10 01:01:00,
2013-03-09 17:21:00,52.0,30.0,-100.00,SW,225,3.0,4.0,43,-99.99,,,-99.99,,2013-03-10 01:21:00,
2013-03-09 17:31:00,52.0,31.0,-100.00,West,270,1.0,1.0,45,-99.99,,,-99.99,,2013-03-10 01:31:00,
2013-03-09 17:41:00,52.0,31.0,-100.00,West,270,1.0,1.0,45,-99.99,,,-99.99,,2013-03-10 01:41:00,
2013-03-09 17:52:00,51.0,32.0,-100.00,SW,225,1.0,2.0,47,-99.99,,,-99.99,,2013-03-10 01:52:00,
2013-03-09 18:01:00,51.0,31.0,-100.00,SW,225,3.0,3.0,47,-99.99,,,-99.99,,2013-03-10 02:01:00,
2013-03-09 18:22:00,49.0,31.0,-100.00,SW,225,1.0,3.0,49,-99.99,,,-99.99,,2013-03-10 02:22:00,
2013-03-09 18:31:00,48.0,33.0,-100.00,SW,225,1.0,2.0,56,-99.99,,,-99.99,,2013-03-10 02:31:00,
2013-03-09 18:41:00,48.0,33.0,-100.00,SW,225,1.0,2.0,56,-99.99,,,-99.99,,2013-03-10 02:41:00,
2013-03-09 18:52:00,47.0,35.0,-100.00,West,270,1.0,1.0,63,-99.99,,,-99.99,,2013-03-10 02:52:00,
2013-03-09 19:01:00,45.0,35.0,-100.00,West,270,1.0,2.0,68,-99.99,,,-99.99,,2013-03-10 03:01:00,
2013-03-09 19:11:00,44.0,36.0,-100.00,West,270,1.0,2.0,72,-99.99,,,-99.99,,2013-03-10 03:11:00,
2013-03-09 19:22:00,44.0,36.0,-100.00,West,270,1.0,2.0,72,-99.99,,,-99.99,,2013-03-10 03:22:00,
2013-03-09 19:31:00,43.0,36.0,-100.00,SW,225,3.0,3.0,76,-99.99,,,-99.99,,2013-03-10 03:31:00,
2013-03-09 19:42:00,43.0,36.0,-100.00,SW,225,3.0,3.0,76,-99.99,,,-99.99,,2013-03-10 03:42:00,
2013-03-09 19:52:00,42.0,36.0,-100.00,SW,225,1.0,1.0,78,-99.99,,,-99.99,,2013-03-10 03:52:00,
2013-03-09 20:01:00,41.0,36.0,-100.00,North,-999,0.0,0.0,81,-99.99,,,-99.99,,2013-03-10 04:01:00,
2013-03-09 20:11:00,41.0,36.0,-100.00,North,-999,0.0,0.0,81,-99.99,,,-99.99,,2013-03-10 04:11:00,
2013-03-09 20:21:00,40.0,35.0,-100.00,North,-999,0.0,0.0,83,-99.99,,,-99.99,,2013-03-10 04:21:00,
2013-03-09 20:31:00,39.0,35.0,-100.00,North,-999,0.0,0.0,84,-99.99,,,-99.99,,2013-03-10 04:31:00,
2013-03-09 20:41:00,39.0,35.0,-100.00,North,-999,0.0,0.0,84,-99.99,,,-99.99,,2013-03-10 04:41:00,
2013-03-09 20:52:00,38.0,34.0,-100.00,North,-999,0.0,0.0,85,-99.99,,,-99.99,,2013-03-10 04:52:00,
2013-03-09 21:01:00,38.0,34.0,-100.00,North,-999,0.0,0.0,86,-99.99,,,-99.99,,2013-03-10 05:01:00,
2013-03-09 21:11:00,38.0,34.0,-100.00,North,-999,0.0,0.0,86,-99.99,,,-99.99,,2013-03-10 05:11:00,
2013-03-09 21:21:00,37.0,33.0,-100.00,North,-999,0.0,0.0,87,-99.99,,,-99.99,,2013-03-10 05:21:00,
2013-03-09 21:31:00,36.0,33.0,-100.00,North,-999,0.0,0.0,87,-99.99,,,-99.99,,2013-03-10 05:31:00,
2013-03-09 21:42:00,36.0,33.0,-100.00,North,-999,0.0,0.0,87,-99.99,,,-99.99,,2013-03-10 05:42:00,
2013-03-09 21:52:00,36.0,32.0,-100.00,North,-999,0.0,0.0,88,-99.99,,,-99.99,,2013-03-10 05:52:00,
2013-03-09 22:01:00,35.0,32.0,-100.00,North,-999,0.0,0.0,88,-99.99,,,-99.99,,2013-03-10 06:01:00,
2013-03-09 22:11:00,35.0,32.0,-100.00,North,-999,0.0,0.0,88,-99.99,,,-99.99,,2013-03-10 06:11:00,
2013-03-09 22:21:00,34.0,32.0,-100.00,North,-999,0.0,0.0,89,-99.99,,,-99.99,,2013-03-10 06:21:00,
2013-03-09 22:32:00,34.0,31.0,-100.00,North,-999,0.0,0.0,89,-99.99,,,-99.99,,2013-03-10 06:32:00,
2013-03-09 22:41:00,34.0,31.0,-100.00,North,-999,0.0,0.0,89,-99.99,,,-99.99,,2013-03-10 06:41:00,
2013-03-09 22:52:00,34.0,31.0,-100.00,North,-999,0.0,0.0,90,-99.99,,,-99.99,,2013-03-10 06:52:00,
2013-03-09 23:01:00,33.0,31.0,-100.00,North,-999,0.0,0.0,90,-99.99,,,-99.99,,2013-03-10 07:01:00,
2013-03-09 23:11:00,33.0,31.0,-100.00,North,-999,0.0,0.0,90,-99.99,,,-99.99,,2013-03-10 07:11:00,
2013-03-09 23:21:00,33.0,30.0,-100.00,North,-999,0.0,0.0,90,-99.99,,,-99.99,,2013-03-10 07:21:00,
2013-03-09 23:31:00,32.0,29.0,-100.00,North,-999,0.0,0.0,90,-99.99,,,-99.99,,2013-03-10 07:31:00,
2013-03-09 23:42:00,32.0,29.0,-100.00,North,-999,0.0,0.0,90,-99.99,,,-99.99,,2013-03-10 07:42:00,
2013-03-09 23:52:00,32.0,29.0,-100.00,North,-999,0.0,0.0,90,-99.99,,,-99.99,,2013-03-10 07:52:00,